DL5DI-H Weather Reports


time (UTC)temp
F
wind
direction
speed
knots
gust
knots
rain 1hr
in
rain 24hr
in
rain mn
in
humidity
%
barometer
mb
20260506135004 55 330 3.5 10.4 0.00 0.00 0.06 83 1007.0
20260506134000 56 331 2.6 6.1 0.00 0.00 0.06 82 1007.1
20260506133000 56 331 2.6 6.1 0.00 0.00 0.06 82 1007.1
20260506132000 56 334 2.6 9.6 0.00 0.00 0.06 81 1007.0
20260506131004 57 336 3.5 8.7 0.00 0.00 0.06 82 1006.8
20260506130005 57 336 3.5 8.7 0.00 0.00 0.06 82 1006.8
20260506125004 57 340 3.5 9.6 0.00 0.00 0.06 82 1006.7
20260506124004 56 316 1.7 5.2 0.00 0.00 0.06 85 1006.8
20260506123000 56 316 1.7 5.2 0.00 0.00 0.06 85 1006.8
20260506122000 56 329 1.7 5.2 0.00 0.00 0.06 85 1006.7
20260506121004 56 329 1.7 4.3 0.00 0.00 0.06 85 1006.7
20260506120005 56 329 1.7 4.3 0.00 0.00 0.06 85 1006.7
20260506115000 56 329 2.6 6.1 0.00 0.00 0.06 85 1006.6
20260506114000 56 347 1.7 3.5 0.00 0.00 0.06 86 1006.7
20260506113005 57 334 0.9 3.5 0.00 0.00 0.06 87 1006.6
20260506112000 56 302 1.7 5.2 0.00 0.00 0.06 86 1006.5
20260506111004 56 339 1.7 5.2 0.00 0.00 0.06 87 1006.5
20260506110004 56 335 1.7 6.1 0.00 0.00 0.06 87 1006.4
20260506105004 56 343 2.6 6.1 0.00 0.00 0.06 87 1006.4
20260506104000 56 341 1.7 3.5 0.00 0.00 0.06 88 1006.4
20260506103000 55 350 1.7 3.5 0.00 0.00 0.06 88 1006.3
20260506102000 55 347 1.7 5.2 0.00 0.00 0.06 88 1006.2
20260506101004 55 334 1.7 5.2 0.00 0.00 0.06 89 1006.2
20260506100001 55 348 1.7 3.5 0.00 0.00 0.06 89 1006.2
20260506095004 55 355 1.7 5.2 0.00 0.00 0.06 89 1006.1
20260506094000 55 341 2.6 5.2 0.00 0.00 0.06 90 1006.0
20260506093004 55 341 1.7 7.0 0.00 0.00 0.06 90 1005.9
20260506092004 54 339 2.6 5.2 0.00 0.00 0.06 90 1005.9
20260506091000 54 340 1.7 4.3 0.00 0.00 0.06 90 1005.9
20260506090000 54 340 1.7 3.5 0.00 0.00 0.06 90 1005.9
20260506085005 54 334 1.7 4.3 0.00 0.00 0.06 90 1005.8
20260506084000 54 337 1.7 5.2 0.00 0.00 0.06 90 1005.7
20260506083005 54 349 2.6 3.5 0.00 0.00 0.06 90 1005.6
20260506082000 54 352 1.7 3.5 0.00 0.00 0.06 90 1005.7
20260506081000 54 1 1.7 4.3 0.00 0.00 0.06 90 1005.7
20260506073004 54 352 1.7 3.5 0.00 0.00 0.06 91 1005.7
20260506072001 54 356 0.9 2.6 0.00 0.00 0.06 91 1005.6
20260506071004 54 338 0.9 2.6 0.00 0.00 0.06 91 1005.6
20260506062005 53 23 0.9 1.7 0.00 0.00 0.06 92 1005.4
20260506061001 53 45 0.9 1.7 0.00 0.00 0.06 92 1005.4
20260506051004 53 23 0.9 0.9 0.02 0.00 0.06 92 1005.5
20260506045005 53 206 0.9 0.9 0.02 0.00 0.05 92 1005.7
20260506044004 53 322 0.9 1.7 0.02 0.00 0.04 92 1005.7
20260506043000 53 16 0.9 1.7 0.02 0.00 0.04 92 1005.6
20260506042005 53 90 0.9 0.9 0.01 0.00 0.04 92 1005.7
20260506041004 53 90 0.9 0.9 0.00 0.00 0.03 92 1005.7
20260506040004 53 124 0.9 1.7 0.00 0.00 0.03 91 1005.7
20260506035001 53 329 0.9 1.7 0.00 0.00 0.03 91 1005.7
20260506034005 53 355 0.9 1.7 0.00 0.00 0.03 92 1005.7
20260506033005 53 17 0.9 3.5 0.00 0.00 0.03 92 1005.6
20260506032000 53 358 0.9 2.6 0.01 0.00 0.03 91 1005.6
20260506031004 53 343 0.9 2.6 0.01 0.00 0.03 91 1005.7
20260506030000 53 341 0.9 2.6 0.01 0.00 0.03 91 1005.9
20260506025004 53 341 0.9 2.6 0.01 0.00 0.03 91 1005.9
20260506024000 53 339 1.7 3.5 0.01 0.00 0.03 90 1006.0
20260506023004 53 354 0.9 2.6 0.01 0.00 0.02 91 1006.0
20260506022000 53 354 0.9 2.6 0.01 0.00 0.02 91 1006.0
20260506021004 53 329 0.9 1.7 0.01 0.00 0.02 91 1006.2
20260506020005 53 338 0.9 1.7 0.01 0.00 0.02 90 1006.2
20260506015000 53 338 0.9 1.7 0.01 0.00 0.02 90 1006.2
20260506014000 54 330 0.9 1.7 0.01 0.00 0.02 91 1006.4
20260506013001 54 317 0.9 1.7 0.00 0.00 0.01 91 1006.5
20260506012004 54 317 0.9 1.7 0.00 0.00 0.01 91 1006.5
20260506011001 54 320 0.9 1.7 0.00 0.00 0.01 90 1006.5
20260506010004 54 317 0.9 1.7 0.00 0.00 0.01 91 1006.5
20260506005000 54 317 0.9 1.7 0.00 0.00 0.01 91 1006.5
20260506004005 54 327 0.9 1.7 0.00 0.00 0.01 90 1006.6
20260506003000 54 340 0.9 2.6 0.00 0.00 0.01 90 1006.6
20260506002001 54 340 0.9 2.6 0.01 0.00 0.01 90 1006.6
20260506001000 54 342 0.9 1.7 0.01 0.00 0.01 90 1006.7
20260506000004 54 332 0.9 2.6 0.01 0.00 0.01 90 1006.9
20260505235004 54 332 0.9 2.6 0.01 0.00 0.01 90 1006.9
20260505234000 54 321 0.9 2.6 0.01 0.00 0.01 90 1007.0
20260505233001 55 282 1.7 3.5 0.00 0.00 0.00 90 1007.1
20260505232004 55 282 1.7 3.5 0.00 0.00 0.00 90 1007.1
20260505231001 55 270 0.9 1.7 0.00 0.00 0.00 90 1007.1
20260505230005 55 291 1.7 3.5 0.00 0.00 0.00 89 1007.2
20260505225004 55 291 1.7 3.5 0.00 0.00 0.00 89 1007.2
20260505224004 55 297 1.7 4.3 0.00 0.00 0.00 90 1007.1
20260505223000 56 308 0.9 3.5 0.00 0.00 0.00 89 1007.2
20260505222004 56 308 0.9 3.5 0.00 0.00 0.00 89 1007.2
20260505221004 56 230 1.7 5.2 0.00 0.00 0.00 89 1007.1
20260505220000 56 348 0.9 1.7 0.00 0.00 0.43 90 1007.2
20260505215001 56 348 0.9 1.7 0.00 0.00 0.43 90 1007.2
20260505214004 56 14 1.7 3.5 0.02 0.00 0.43 90 1007.4
20260505213004 56 14 1.7 3.5 0.02 0.00 0.43 90 1007.4
20260505212000 56 14 1.7 3.5 0.02 0.00 0.43 90 1007.4
20260505211005 56 14 1.7 3.5 0.02 0.00 0.43 90 1007.4
20260505210004 56 14 1.7 3.5 0.02 0.00 0.43 90 1007.4
20260505205004 57 48 0.9 3.5 0.02 0.00 0.43 90 1007.5
20260505204000 57 270 1.7 4.3 0.02 0.00 0.43 90 1007.6
20260505203004 57 270 1.7 4.3 0.02 0.00 0.43 90 1007.6
20260505202000 57 270 0.9 1.7 0.03 0.00 0.42 90 1007.5
20260505201001 57 245 1.7 3.5 0.02 0.00 0.41 89 1007.5
20260505200004 57 194 1.7 2.6 0.02 0.00 0.41 89 1007.4
20260505195001 57 351 0.9 3.5 0.02 0.00 0.40 89 1007.3
20260505194004 58 188 0.9 1.7 0.03 0.00 0.40 90 1007.2
20260505193004 58 316 1.7 5.2 0.03 0.00 0.40 89 1007.2
20260505192004 58 312 0.9 3.5 0.02 0.00 0.39 89 1007.2
20260505191000 58 355 0.9 1.7 0.02 0.00 0.39 89 1007.2
20260505190004 58 9 0.9 3.5 0.02 0.00 0.38 89 1007.2
20260505185000 59 330 1.7 3.5 0.03 0.00 0.38 89 1007.2
20260505184004 59 338 0.9 3.5 0.03 0.00 0.37 90 1007.1
20260505183000 59 338 0.9 1.7 0.03 0.00 0.37 91 1007.1
20260505182001 59 315 0.9 1.7 0.04 0.00 0.37 90 1007.2
20260505181004 60 166 0.9 1.7 0.04 0.00 0.36 90 1007.1
20260505180000 60 155 0.9 0.9 0.04 0.00 0.36 90 1007.2
20260505175000 60 201 0.9 1.7 0.04 0.00 0.35 90 1007.2
20260505174000 60 270 0.9 0.9 0.03 0.00 0.34 90 1007.2
20260505173000 60 220 0.9 1.7 0.03 0.00 0.34 90 1007.2
20260505172000 60 270 0.9 1.7 0.02 0.00 0.33 89 1007.3
20260505171000 60 270 0.9 1.7 0.02 0.00 0.32 89 1007.2
20260505170000 60 301 1.7 3.5 0.02 0.00 0.32 89 1007.3
20260505165004 60 300 1.7 3.5 0.02 0.00 0.31 89 1007.3
20260505164005 60 298 1.7 4.3 0.03 0.00 0.31 89 1007.4
20260505163004 60 302 1.7 3.5 0.03 0.00 0.31 89 1007.4
20260505162000 60 233 0.9 1.7 0.04 0.00 0.31 90 1007.4
20260505161004 60 270 1.7 3.5 0.05 0.00 0.30 89 1007.5
20260505153005 61 255 1.7 6.1 0.26 0.00 0.28 88 1007.6
20260505152000 61 144 1.7 11.3 0.25 0.00 0.27 87 1007.6
20260505151004 62 175 2.6 7.0 0.13 0.00 0.14 83 1007.8